{"data":{"norad_id":69810,"epoch":"2026-09-20T03:36:21.015072Z","epoch_age_seconds":51877,"freshness":"FRESH","line1":"1 69810U 26153L   26263.15024323  .00000280  00000+0  13870-3 0  9991","line2":"2 69810  88.9979 351.4612 0006688 346.8951  13.2061 14.14540683 11025","mean_motion":14.14540683,"eccentricity":0.0006688,"inclination_deg":88.9979,"raan_deg":351.4612,"arg_perigee_deg":346.8951,"mean_anomaly_deg":13.2061,"bstar":0.0001387,"rev_number":1102,"period_min":101.79982925242,"perigee_km":839.04503901894,"apogee_km":848.70520243162,"semimajor_km":7222.0121207253,"source":"CELESTRAK","updated_at":"2026-09-20T09:00:25.121840Z"}}